Regional Weather Roundup
Issued by NWS

Home | Current Version | Previous Version | Text Only | Print | Product List | Glossary Off
Versions: 1 2 3 4 5 6 7 8 9 10 11 12 13 14 15 16 17 18 19 20 21 22 23 24 25 26 27 28 29 30 31 32 33 34 35 36 37 38 39 40 41 42 43 44 45 46 47 48 49 50

000
ASUS43 KMPX 270501
RWRMN
WEATHER ROUNDUP FOR MINNESOTA
NATIONAL WEATHER SERVICE TWIN CITIES/CHANHASSEN MN
1100 PM CST MON JAN 26 2015


NOTE: "FAIR" INDICATES FEW OR NO CLOUDS BELOW 12,000 FEET WITH NO
SIGNIFICANT WEATHER AND/OR OBSTRUCTIONS TO VISIBILITY. N/A MEANS
CURRENT SKY AND/OR WEATHER CONDITIONS ARE NOT AVAILABLE.

MNZ060>063-068>070-270600-
   Twin Cities Metro

CITY           SKY/WX    TMP DP  RH WIND       PRES   REMARKS
TWIN CITIES    CLOUDY    37  28  70 NW7       29.96R
ST PAUL        CLOUDY    37  29  72 N13G22    29.97R
CRYSTAL        CLOUDY    37  29  72 N8        29.96R
BLAINE         CLOUDY    37  30  75 N10       29.96R
LAKEVILLE      CLOUDY    34  30  86 NW10      29.95R WCI  26
EDEN PRAIRIE   CLOUDY    36  29  75 NW10      29.96R
SOUTH ST PAUL  CLOUDY    38  30  73 N7        29.95R
LAKE ELMO      CLOUDY    36  30  80 N8        29.96R
$$
MNZ001>005-007-008-013>017-022>024-027-028-270600-
   Northwest Minnesota

CITY           SKY/WX    TMP DP  RH WIND       PRES   REMARKS
BEMIDJI        CLOUDY    28  25  89 NW5       29.98R WCI  22
HALLOCK        CLOUDY    25  25 100 CALM      30.00S
ROSEAU         CLOUDY    25  19  80 SW3       29.99S
WARROAD        CLOUDY    23  19  86 CALM      30.00R
THIEF RVR FALL CLOUDY    27  27 100 CALM      30.00R
CROOKSTON      CLOUDY    27  25  93 CALM      30.03R
FOSSTON        CLOUDY    25  21  86 CALM      30.00R
DETROIT LAKES  CLOUDY    28  28 100 NW8       30.01R WCI  20
MOORHEAD       MOCLDY    27  27 100 CALM      30.04R
PARK RAPIDS    CLOUDY    29  25  85 N6        29.97S WCI  23
MAHNOMEN       CLOUDY    27  25  92 CALM      29.99S
$$
MNZ006-009>011-018-025>026-270600-
   North Central Minnesota

CITY           SKY/WX    TMP DP  RH WIND       PRES   REMARKS
BAUDETTE       CLOUDY    25  21  85 VRB3      29.97R
FLAG ISLAND    CLOUDY    25  21  86 W3        29.98R
INTL FALLS     CLOUDY    25  21  85 NW3       29.97R
WASKISH        CLOUDY    27  25  93 CALM      29.99R
BIG FORK       CLOUDY    27  21  80 N3        29.98R
LONGVILLE      CLOUDY    28  25  86 NW5       29.98R WCI  23
GRAND RAPIDS   CLOUDY    28  21  74 N6        29.96R WCI  22
CRANE LAKE     CLOUDY    23  21  93 CALM      29.99R
ORR            CLOUDY    25  19  80 CALM      29.94R
COOK           CLOUDY    25  21  86 N3        29.96R
WALKER         CLOUDY    29  24  84 N6        29.98R WCI  22
$$
MNZ012-019>021-037-270600-
   Northeast Minnesota

CITY           SKY/WX    TMP DP  RH WIND       PRES   REMARKS
DULUTH         CLOUDY    28  22  78 N5        29.93R WCI  23
ELY            CLOUDY    21  19  93 NW3       29.94R
HIBBING        CLOUDY    28  22  78 N10       29.95R WCI  19
EVELETH        CLOUDY    27  21  80 NW7       29.96R WCI  19
DULUTH HARBOR  CLOUDY    30  27  86 NW6       29.98R WCI  24
TWO HARBORS    CLOUDY    28  25  86 N5        29.93R WCI  23
SILVER BAY     CLOUDY    27  23  86 CALM      29.93R
GRAND MARAIS     N/A     27  22  81 N3        29.97R
G MARAIS ARPRT CLOUDY    16  12  86 NW3       29.90R
$$
MNZ029>031-032-039>041-046>048-054>057-064-270600-
   West Central Minnesota

CITY           SKY/WX    TMP DP  RH WIND       PRES   REMARKS
FERGUS FALLS   CLOUDY    28  27  93 N5        30.04R WCI  23
WHEATON        PTCLDY    27  25  93 CALM      30.05R
MORRIS         PTCLDY    28  27  93 NW6       30.01R WCI  22
ALEXANDRIA     CLOUDY    29  26  89 NW7       30.00R WCI  22
ELBOW LAKE     CLOUDY    28  28  96 N7        30.01R WCI  21
WADENA         CLOUDY    28  27  93 NW6       29.99R WCI  22
GLENWOOD       CLOUDY    28  27  93 NW9       30.00R WCI  20
APPLETON       MOCLDY    30  28  93 NW5       30.02R WCI  25
BENSON         CLEAR     25  25 100 N5        30.02R WCI  19
ORTONVILLE     CLEAR     28  27  93 NW3       30.02R
MADISON        CLEAR     34  32  93 NW7       30.02R WCI  28
WILLMAR        CLOUDY    34  28  80 NW7       30.02R WCI  28
$$
MNZ033>034-036-042>043-049>051-058-059-270600-
   Central Minnesota

CITY           SKY/WX    TMP DP  RH WIND       PRES   REMARKS
ST CLOUD       CLOUDY    34  27  75 NW7       29.97R WCI  28
SAUK CENTRE    CLOUDY    31  28  87 NW7       29.99R WCI  24
PAYNESVILLE    CLOUDY    30  27  90 NW7       29.99R WCI  23
AITKIN         CLOUDY    34  25  69 N6        29.96R WCI  29
PINE RIVER     CLOUDY    30  25  80 NW7       30.01R WCI  23
BRAINERD       CLOUDY    31  25  78 NW15      29.99R WCI  20
STAPLES        CLOUDY    28  25  86 N3        29.98S
LONG PRAIRIE   CLOUDY    30  28  93 NW5       29.98R WCI  25
LITTLE FALLS   CLOUDY    32  27  80 NW3       29.98R
LITCHFIELD     CLOUDY    34  30  86 NW7       29.99R WCI  28
BUFFALO        CLOUDY    35  29  79 NW8       29.98R WCI  28
MAPLE LAKE     CLOUDY    36  31  83 NW8       29.98R
$$
MNZ037-044-045-052-053-270600-
   East Central Minnesota

CITY           SKY/WX    TMP DP  RH WIND       PRES   REMARKS
PRINCETON      CLOUDY    36  28  75 N3        29.98R
MORA           CLOUDY    34  25  69 N6        29.98R WCI  29
CAMBRIDGE      CLOUDY    36  27  69 NW5       29.95R
RUSH CITY      CLOUDY    34  27  77 N6        29.96R WCI  29
MOOSE LAKE     CLOUDY    30  25  80 N10       29.95R WCI  21
HINCKLEY       CLOUDY    32  27  80 N10G16    29.96R WCI  24
CLOQUET        CLOUDY    28  21  74 N7G18     29.95R WCI  21
MCGREGOR       CLOUDY    32  27  80 N6        29.96R WCI  26
$$
MNZ071>073-080-081-089-090-097-098-270600-
   Southwest Minnesota

CITY           SKY/WX    TMP DP  RH WIND       PRES   REMARKS
MONTEVIDEO     CLEAR     30  28  93 N6        30.03R WCI  24
GRANITE FALLS  CLEAR     31  29  92 NW3       30.03R
CANBY          CLEAR     31  30  96 NW3       30.03R
MARSHALL       CLEAR     32  28  86 N8        30.03R WCI  25
REDWOOD FALLS  PTCLDY    32  29  88 N7        30.00R WCI  26
OLIVIA         CLOUDY    32  32 100 N6        30.00R WCI  26
PIPESTONE      CLEAR     34  30  86 NW3       30.00R
WINDOM         CLEAR     34  32  93 NW9       29.99R WCI  26
WORTHINGTON    CLEAR     32  28  86 NW8       30.01R WCI  25
JACKSON        CLEAR     34  32  93 NW9       29.99R WCI  26
TRACY          CLEAR     33  32  94 NW6       30.01R WCI  28
SLAYTON        CLEAR     32  31  95 CALM      30.01R
$$
MNZ065>067-074>077-082>085-091>093-270600-
   South Central Minnesota

CITY           SKY/WX    TMP DP  RH WIND       PRES   REMARKS
MANKATO        CLOUDY    34  28  80 NW12      29.98R WCI  25
NEW ULM        CLEAR     34  28  80 NW9       29.99R WCI  26
ST JAMES       MOCLDY    34  32  93 NW8       30.01R WCI  27
FAIRMONT       CLEAR     34  28  80 NW10      29.98R WCI  26
GLENCOE        CLOUDY    35  32  90 NW8       29.97R WCI  28
FARIBAULT      CLOUDY    36  30  80 W8        29.96R
OWATONNA       CLOUDY    36  30  80 NW12      29.96R
WASECA         CLOUDY    34  32  93 NW12      29.97R WCI  25
ALBERT LEA     CLOUDY    36  32  87 NW7       29.95R
$$
MNZ078>079-086>088-094>096-270600-
   Southeast Minnesota

CITY           SKY/WX    TMP DP  RH WIND       PRES   REMARKS
ROCHESTER      CLOUDY    35  30  82 NW13      29.92R WCI  26
RED WING       CLOUDY    37  28  70 N3        29.94R
STANTON        CLOUDY    36  31  85 W10       29.94R
DODGE CENTER   CLOUDY    36  32  87 NW10      29.93R
WINONA         CLOUDY    30  28  93 CALM      29.93R
AUSTIN         CLOUDY    36  30  80 NW8       29.94R
PRESTON        CLOUDY    35  30  83 NW12      29.91R WCI  27
$$
ABBREVIATIONS USED IN REMARKS
   TC - TEMPERATURES IN CELSIUS
  WCI - WIND CHILL INDEX
   HX - HEAT INDEX
  VSB - VISIBILITY
$$


USA.gov is the U.S. government's official web portal to all federal, state and local government web resources and services.